DMSP 5D-2 F11 DEB, 28327

Orbit data source: Space-Track

DMSP 5D-2 F11 DEB, 28327 is space debris in SSO originally from a launch on Thu, 28 Nov 1991 UTC launched from the Air Force Western Test Range (AFWTR). Debris objects in space refer to the collection of defunct objects orbiting the Earth. Examples of debris include non-operational satellites, rocket bodies, and fragments generated from explosions, collisions, or faulty payload assembly.

Loading next visibility...
Identifier
28327, 1991-082AQ
Orbit
SSO
Country
Flag of USUS
Related business
Manufacturer
Unknown
Mission
Spacecraft
Bus & Motor
Unknown
Mass
Unknown
Launch date (UTC)
1991-11-28 (35 years ago)
Launch vehicle
Unknown
Launch site
Air Force Western Test Range (AFWTR)
Object type
Payload
Rocket body
Debris
Shape & HBR
Unknown shape, 0.1 m
Radar Cross Section
Small (<0.1 m²)

Expand to show TLE details & history
Last TLE update: 1 day ago

TLE from 1 day ago
0 DMSP 5D-2 F11 DEB
1 28327U 91082AQ  26263.51286263  .00003168  00000-0  81359-3 0  9991
2 28327  98.6713 358.7642 0020639  47.3483  16.3963 14.50828944690381
Epoch: 2026-09-20T12:18Z
TLE epoch observation values (Epoch: 2026-09-20T12:18:31.331Z)
Latitude
62.60438°
Longitude
157.70828°
Altitude
719.601 km
Speed
7.509 km/s
True Right ascension
22h 46m 58s
True Declination
62° 27' 46"
Sunlit
Object was in daylight at epoch
Visualization orbit readout
Latitude
Unknown
Longitude
Unknown
Altitude
Unknown
Speed
Unknown
Apparent Right ascension
Unknown
Apparent Declination
Unknown
Sunlit
N/A
Visualization observer readout
Local Sidereal Time
08:59:06
Azimuth
Unknown
Elevation
Unknown
Doppler factor
Unknown
Orbital elements
Apogee altitude
734.708 km
Perigee altitude
705.408 km
Semi-major axis
7,098.195 km
Eccentricity
0.00206
Inclination
98.6713°
RAAN
358.7642°
Arg. of periapsis
47.3483°
True anomaly
16.46323°
Mean anomaly
16.3963°
Eccentric anomaly
16.42975°
Mean motion
3.62929 °/min
Orbital period
99.19 mins
BSTAR
0.00081359

Documentation

Showing up to 5 results
|